www.pogodaiklimat.ru

Погода и климат >> Архив погоды >> Бразилия >> Риу-Гранди-ду-Сул >> Порту-Алегри


ПОГОДА в Порту-Алегри

  • Прогноз погоды в Порту-Алегри
  • Монитор погоды в Порту-Алегри

АРХИВ ПОГОДЫ в Порту-Алегри

Время (UTC), дата Ветер
(напр.,м/с)
 
Видим.   Явления Облачность Т
(С)
Тd
(С)
f
(%)
Тe
(С)
Тes
(С)
Комфортность P
(гПа)
Po
(гПа)
Тmin
(С)
Tmax
(С)
R
(мм)
R24
(мм)
S
(см)
21 9.09 С 3 20 км 5/0
[Cs]
+34.2 +16.0 34 +37 +37 очень
душно
1004.9 1004.6
00 10.09 З 7 20 км 6/0
[Ac trans]
+30.1 +18.1 49 +35 +35 очень
душно
1007.7 1007.3 +36.3
03 10.09 СЗ 3 20 км ясно +25.4 +18.5 66 +30 +30 душно 1010.1 1009.7
06 10.09 ЮВ 4 20 км ясно +22.0 +17.0 73 +26 +26 душно 1011.3 1011.0
09 10.09 20 км н/о +18.3 +15.2 82 +19 +19 1013.3 1012.9
12 10.09 ЮВ 5 20 км 10/5 300 м
[Sc Ac trans]
+17.9 +14.8 82 +18 +18 1017.6 1017.2 +18.3
15 10.09 В 5 20 км 10/3 600 м
[Sc Ac trans]
+19.5 +15.0 75 +21 +23 комфорт 1016.0 1015.6
18 10.09 ЮВ 5 20 км 10/3 600 м
[Sc Ac trans]
+20.9 +14.6 67 +24 +25 комфорт 1015.1 1014.7
21 10.09 ЮВ 5 20 км 10/6 300 м
[Sc Ac trans]
+17.8 +15.1 84 +17 +17 1016.6 1016.2
00 11.09 В 6 20 км 8/6 300 м
[St Ac trans]
+16.6 +14.8 89 +16 +16 1017.4 1017.0 +20.9
03 11.09 В 5 20 км 10/10 200 м
[St]
+16.4 +15.4 94 +15 +15 1016.6 1016.2
06 11.09 ЮВ 5 10 км в посл. час дождь 10/10 200 м
[Frnb]
+17.1 +16.8 98 +16 +16 1013.5 1013.1 2
09 11.09 ЮВ 5 10 км дымка {дождь} 10/10 200 м
[Frnb]
+17.9 +17.1 95 +17 +17 1012.2 1011.8
12 11.09 ЮВ 6 8000 м дымка {дождь} 10/10 200 м
[Sc]
+18.5 +17.5 94 +19 +19 1013.6 1013.2 +16.2 2
15 11.09 ЮВ 5 9000 м в посл. час дождь 10/10 200 м
[Sc]
+18.3 +17.7 96 +18 +18 1013.6 1013.2
18 11.09 В 7 20 км 10/10 100 м
[St]
+18.9 +18.4 97 +20 +20 1009.4 1009.0
21 11.09 20 км н/о +18.7 +18.1 96 +20 +20 1010.3 1009.9
00 12.09 ЮЗ 2 5000 м слаб. дождь 10/10 100 м
[Frnb]
+18.4 +18.4 100 +20 +20 1011.9 1011.5 +19.3 2
03 12.09 З 3 5000 м гроза, ливневой дождь 10/10 100 м
[Cb cap]
+18.2 +18.2 100 +19 +19 1012.5 1012.1
06 12.09 З 2 4000 м слаб. дождь 10/10 50 м
[Frnb]
+17.9 +17.9 100 +18 +18 1010.6 1010.2 7
09 12.09 Ю 1 6000 м слаб. дождь 10/10 200 м
[Frnb]
+17.5 +17.5 100 +19 +19 1012.0 1011.6
12 12.09 З 2 2500 м слаб. дождь 10/10 100 м
[Sc diur, vesp]
+17.0 +17.0 100 +17 +17 1015.4 1015.0 +17.5 17
15 12.09 ЮЗ 3 3000 м дождь {морось} 10/10 100 м
[Sc diur, vesp]
+16.7 +16.5 99 +16 +16 1016.9 1016.5
18 12.09 Ю 5 4000 м слаб. дождь {морось} 10/10 300 м
[Sc]
+16.7 +15.9 95 +16 +16 1017.6 1017.2
21 12.09 Ю 4 20 км 8/4 300 м
[St Ac lent]
+16.8 +14.1 84 +16 +16 1019.9 1019.5
00 13.09 Ю 2 20 км 4/1 600 м
[Sc Ac trans]
+15.5 +14.1 91 +16 +16 1021.7 1021.3 +17.5
03 13.09 ЮВ 1 20 км 3/3 300 м
[St]
+14.6 +14.0 96 +15 +15 1022.4 1022.0
06 13.09 СВ 2 20 км 6/6 300 м
[Frnb]
+13.4 +13.2 99 +13 +13 1022.6 1022.2
09 13.09 штиль 0 20 км 10/10 300 м
[Sc]
+13.8 +13.5 98 +13 +13 1023.3 1022.9
12 13.09 Ю 4 20 км 8/8 600 м
[Sc]
+15.8 +12.4 80 +15 +16 1025.3 1024.9 +13.0 5
15 13.09 20 км н/о +18.1 +11.3 64 +18 +19 1024.9 1024.5
18 13.09 В 4 20 км 6/6 1000 м
[Sc]
+19.1 +10.7 58 +20 +22 1022.5 1022.1
21 13.09 ЮВ 5 20 км ясно +17.0 +8.3 57 +16 +17 1022.5 1022.1
00 14.09 ЮВ 5 20 км 5/0 2000 м
[Ac trans]
+14.2 +10.3 77 +13 +13 1023.3 1022.9 +19.1
03 14.09 ЮВ 6 15 км дымка 8/3 200 м
[Frnb Ac trans]
+15.0 +14.1 94 +13 +13 1021.9 1021.5
06 14.09 Ю 3 10 км гроза без осадков 10/10 200 м
[Cb cap]
+15.5 +14.7 95 +15 +15 1020.9 1020.5
09 14.09 ЮВ 3 10 км дымка 9/6 200 м
[Sc Ac trans]
+15.6 +14.6 94 +15 +15 1018.0 1017.6
12 14.09 В 5 20 км {гроза, дождь} 9/3 600 м
[Sc Ac trans Ci fib]
+18.3 +15.4 83 +18 +20 1018.9 1018.5 +14.1
15 14.09 В 5 20 км 9/0
[Ac trans Ci fib]
+22.3 +14.8 63 +26 +32 жарко 1016.8 1016.4
18 14.09 В 4 20 км 9/0
[Cs]
+21.9 +16.5 71 +26 +31 душно 1014.7 1014.3
21 14.09 В 5 20 км 9/1 1000 м
[Cu Sc Ac As]
+20.3 +17.2 82 +23 +23 комфорт 1013.7 1013.3
00 15.09 ЮВ 3 20 км 3/0
[Ac trans]
+18.8 +17.1 90 +20 +20 1013.7 1013.3 +22.9
03 15.09 В 3 20 км 8/0
[Ac trans]
+18.0 +17.2 95 +18 +18 1012.9 1012.5
06 15.09 В 2 20 км ясно +16.5 +16.5 100 +17 +17 1011.6 1011.2
09 15.09 В 2 20 км ясно +16.3 +16.3 100 +16 +16 1011.4 1011.0
12 15.09 В 1 20 км 5/0
[Cs]
+21.8 +18.3 81 +27 +34 душно 1012.4 1012.0 +16.3
15 15.09 В 1 20 км 1/0
[Cs]
+28.5 +17.6 52 +33 +51 опасность
солнечного
удара
1010.9 1010.5
18 15.09 В 4 20 км 4/0
[Ac trans Ci fib]
+30.7 +18.0 47 +35 +41 очень
душно
1008.8 1008.4
21 15.09 В 5 20 км 4/0
[Ac trans Cc]
+27.1 +20.6 68 +34 +34 очень
душно
1007.8 1007.4
00 16.09 В 4 20 км 4/0
[Ci fib]
+23.5 +20.3 82 +29 +29 душно 1008.5 1008.1 +30.7
03 16.09 В 2 20 км ясно +21.2 +19.5 90 +26 +26 душно 1007.8 1007.4
06 16.09 штиль 0 20 км ясно +19.2 +18.9 98 +21 +21 комфорт 1006.8 1006.4
09 16.09 ЮВ 2 20 км ясно +19.6 +19.0 96 +23 +23 комфорт 1005.9 1005.5
12 16.09 Ю 6 20 км 8/4 300 м
[St Ac lent]
+27.7 +18.9 59 +33 +34 очень
душно
1008.3 1007.9 +18.8
15 16.09 Ю 4 20 км 9/5 300 м
[St Ac lent]
+21.0 +18.1 84 +25 +27 комфорт 1011.3 1010.9
18 16.09 ЮВ 4 20 км 9/9 300 м
[Frnb]
+20.3 +18.5 89 +24 +25 комфорт 1011.5 1011.1

 

Местоположение метеостанции Порту-Алегри (Риу-Гранди-ду-Сул, Бразилия): широта -30.00 долгота -51.18 высота над уровнем моря 3 м.

В архиве по умолчанию представлена погода в Порту-Алегри за последнюю неделю. Архивные данные за месяц целиком и за предыдущие месяцы, начиная с января 2011 года, Вы можете получить, выбрав интересующий диапазон дат из раскрывающегося списка и нажав кнопку "Ввод!".


*Определитесь, кто Вы:
робот инопланетянин человек

Внимание! Время в таблицах - всемирное. Для получения местного времени необходимо прибавить поправку, которая равна -3 ч.

Смотрите также архив погоды в соседних городах и на ближайших метеорологических станциях:

Погода в Порту-Алегри (Риу-Гранди-ду-Сул, Бразилия) (6 км)
Погода в Кампу-Боне (Риу-Гранди-ду-Сул, Бразилия) (38 км)
Погода в Канеле (Риу-Гранди-ду-Сул, Бразилия) (78 км)
Погода в Теутонии (Риу-Гранди-ду-Сул, Бразилия) (87 км)
Погода в Бенту-Гонсалвисе (Риу-Гранди-ду-Сул, Бразилия) (99 км)
Погода в Трамандаи (Риу-Гранди-ду-Сул, Бразилия) (100 км)
Погода в Камакве (Риу-Гранди-ду-Сул, Бразилия) (110 км)
Погода в Рио-Пардо (Риу-Гранди-ду-Сул, Бразилия) (117 км)
Погода в Энкрузильяда-ду-Суле (Риу-Гранди-ду-Сул, Бразилия) (141 км)
Погода в Мостардасе (Риу-Гранди-ду-Сул, Бразилия) (141 км)

Пояснения к столбцам:

Ветер - указаны скорость ветра в м/с - средняя за 10 мин, порывы в срок и между сроками (в фигурных скобках) и направление, откуда дует ветер: С - северный, СВ - северо-восточный, В - восточный, ЮВ - юго-восточный, Ю - южный, ЮЗ - юго-западный, З - западный, СЗ - северо-западный.
Видимость - горизонтальная дальность видимости в метрах или километрах. При видимости от 1 до 10 км при отсутствии осадков обычно наблюдается дымка, при ухудшении видимости до 1 км и менее - туман. В сухую погоду видимость может ухудшаться дымом, пылью или мглою.
Явления - указаны атмосферные явления, наблюдавшиеся в срок или в последний час перед сроком; фигурными скобками обозначены явления, наблюдавшиеся между сроками (за 1-3 часа до срока); квадратными скобками обозначены град или гололедные отложения с указанием их диаметра в мм.
Облачность - указаны через наклонную черту общая и нижняя облачность в баллах и высота нижней границы облаков в метрах; квадратными скобками обозначены формы облаков: Ci - перистые, Cs - перисто-слоистые, Cc - перисто-кучевые, Ac - высококучевые, As - высокослоистые, Sc - слоисто-кучевые, Ns - слоисто-дождевые, Cu - кучевые, Cb - кучево-дождевые. Подробнее классификацию облаков см. в Атласе облаков (PDF).
T - Температура воздуха - температура, измеренная на высоте 2 м над землей.
Td - Температура точки росы - температура, при понижении до которой содержащийся в воздухе водяной пар достигнет насыщения.
f - Относительная влажность воздуха - влажноcть воздуха, измеренная на высоте 2 м над землей.
Te - Эффективная температура - температура, которую ощущает одетый по сезону человек в тени. Характеристика душности погоды. При расчете учитывается влияние влажности воздуха и скорости ветра на теплоощущения человека.
Tes - Эффективная температура на солнце - температура, которую ощущает человек, с поправкой на солнечный нагрев. Характеристика знойности погоды. Зависит от высоты солнца над горизонтом, облачности и скорости ветра. Ночью, в пасмурную погоду, а также при ветре 12 м/с и более поправка равна нулю.
P - Атмосферное давление - приведенное к уровню моря атмосферное давление.
Po - Атмосферное давление - измеренное на уровне метеостанции атмосферное давление.
Tmin - Минимальная температура - минимум температуры воздуха на высоте 2 м над землей.
Tmax - Максимальная температура - максимум температуры воздуха на высоте 2 м над землей.
R - Количество осадков - Количество выпавших осадков за период времени, мм. При наведении курсора мыши на число - период времени, за который выпало указанное количество осадков.
R24 - Количество осадков - Количество выпавших осадков за 24 часа, мм.
S - Снежный покров - Высота снежного покрова, см. При наведении курсора мыши на число - состояние снежного покрова и степень покрытия местности в баллах.